Weather History for Iron Mountain, MI

Change the Weather History Date:

Friday, February 15, 2013

  Actual Average Record
Temperature  
Mean Temperature 10 °F -  
Max Temperature 19 °F 28 °F 49 °F (1981)
Min Temperature 0 °F 7 °F -17 °F (1974)
Degree Days  
Heating Degree Days 56    
Moisture  
Dew Point 3 °F    
Average Humidity 73    
Maximum Humidity 92    
Minimum Humidity 53    
Precipitation  
Precipitation 0.00 in - - ()
Sea Level Pressure  
Sea Level Pressure 30.10 in    
Wind  
Wind Speed 7 mph (NW)    
Max Wind Speed 12 mph    
Max Gust Speed 21 mph    
Visibility 10 miles    
Events      
Averages and records for this station are not official NWS values.
T = Trace of Precipitation, MM = Missing Value Source: NWS Daily Summary

Daily Weather History Graph

Daily Weather History Graph

Search for Another Location

Airport:

Trip Planner

Search our weather history database for the weather conditions in past years. The results will help you decide how hot, cold, wet, or windy it might be!

Date:

Astronomy

Feb. 15, 2013 Rise Set
Actual Time 6:54 AM CST 5:19 PM CST
Civil Twilight 6:23 AM CST 5:50 PM CST
Nautical Twilight 5:48 AM CST 6:24 PM CST
Astronomical Twilight 5:14 AM CST 6:59 PM CST
Moon 9:09 AM CST (2/15) 11:42 PM CST (2/15)
Length of Visible Light 11h 26m
Length of Day
10h 25m
Waxing Crescent, 30% of the Moon is Illuminated
Feb 15
Waxing Crescent
Feb 17
First Quarter
Feb 25
Full
Mar 4
Last Quarter
Mar 11
New

Hourly Weather History & Observations

Time (CST) Temp. Windchill Dew Point Humidity Pressure Visibility Wind Dir Wind Speed Gust Speed Precip Events Conditions
12:54 AM 14.0 °F 0.5 °F 5.0 °F 67% 30.01 in 10.0 mi NW 11.5 mph - N/A   Clear
1:54 AM 12.9 °F -0.9 °F 3.9 °F 67% 30.03 in 10.0 mi NW 11.5 mph - N/A   Mostly Cloudy
2:54 AM 10.9 °F 0.2 °F 3.0 °F 70% 30.04 in 10.0 mi NW 6.9 mph - N/A   Clear
3:54 AM 7.0 °F -1.7 °F 1.9 °F 80% 30.05 in 10.0 mi NW 4.6 mph - N/A   Clear
4:42 AM 8.6 °F -1.3 °F 3.2 °F 79% 30.00 in 10.0 mi WNW 5.8 mph - N/A   Mostly Cloudy
4:54 AM 5.0 °F -4.1 °F 1.9 °F 87% 30.07 in 10.0 mi NNW 4.6 mph - N/A   Overcast
6:22 AM 3.2 °F - 1.4 °F 92% 30.01 in 10.0 mi Calm Calm - N/A   Scattered Clouds
6:54 AM 3.0 °F - -0.9 °F 84% 30.09 in 10.0 mi Calm Calm - N/A   Mostly Cloudy
7:54 AM 5.0 °F - 1.9 °F 87% 30.11 in 10.0 mi Calm Calm - N/A   Overcast
8:54 AM 12.9 °F 2.6 °F 6.1 °F 74% 30.12 in 10.0 mi NW 6.9 mph - N/A   Overcast
9:13 AM 12.2 °F 1.7 °F 6.8 °F 79% 30.05 in 10.0 mi NW 6.9 mph - N/A   Overcast
9:47 AM 15.8 °F 7.2 °F 6.8 °F 68% 30.05 in 10.0 mi NW 5.8 mph - N/A   Mostly Cloudy
9:54 AM 15.1 °F 7.7 °F 7.0 °F 70% 30.12 in 10.0 mi NNW 4.6 mph - N/A   Mostly Cloudy
10:54 AM 19.0 °F 7.5 °F 6.1 °F 57% 30.11 in 10.0 mi North 10.4 mph 16.1 mph N/A   Mostly Cloudy
11:15 AM 17.6 °F 5.7 °F 3.2 °F 53% 30.04 in 10.0 mi NW 10.4 mph - N/A   Overcast
11:54 AM 19.0 °F 8.2 °F 5.0 °F 54% 30.11 in 10.0 mi North 9.2 mph - 0.00 in   Overcast
12:54 PM 19.9 °F 11.1 °F 6.1 °F 55% 30.09 in 10.0 mi NW 6.9 mph - 0.00 in   Overcast
1:54 PM 19.0 °F 6.8 °F 9.0 °F 65% 30.09 in 8.0 mi NW 11.5 mph - 0.00 in   Overcast
2:54 PM 18.0 °F 5.4 °F 10.0 °F 71% 30.11 in 9.0 mi NNW 11.5 mph 20.7 mph 0.00 in   Overcast
3:54 PM 18.0 °F 6.1 °F 6.1 °F 60% 30.13 in 10.0 mi WNW 10.4 mph - 0.00 in   Overcast
4:54 PM 15.1 °F 3.3 °F 3.9 °F 61% 30.16 in 10.0 mi WNW 9.2 mph - N/A   Overcast
5:46 PM 12.2 °F -1.8 °F 5.0 °F 73% 30.09 in 10.0 mi NNW 11.5 mph - N/A   Overcast
5:54 PM 12.9 °F -0.2 °F 5.0 °F 71% 30.18 in 10.0 mi NNW 10.4 mph - N/A   Overcast
6:54 PM 8.1 °F -2.0 °F 1.0 °F 73% 30.19 in 10.0 mi NW 5.8 mph - N/A   Mostly Cloudy
7:54 PM 6.1 °F - 1.0 °F 80% 30.20 in 10.0 mi Calm Calm - N/A   Overcast
8:54 PM 3.0 °F - -0.9 °F 84% 30.19 in 10.0 mi Calm Calm - N/A   Clear
9:54 PM -0.9 °F - -4.0 °F 87% 30.18 in 10.0 mi Calm Calm - N/A   Partly Cloudy
10:54 PM -0.9 °F - -6.0 °F 79% 30.17 in 10.0 mi Calm Calm - N/A   Overcast
11:54 PM -0.0 °F - -4.0 °F 83% 30.15 in 10.0 mi Calm Calm - N/A   Overcast